TimeEDT,TemperatureF,Dew PointF,Humidity,Sea Level PressureIn,VisibilityMPH,Wind Direction,Wind SpeedMPH,Gust SpeedMPH,PrecipitationIn,Events,Conditions,WindDirDegrees,DateUTC
12:53 AM,75.0,73.0,94,30.07,9.0,Calm,Calm,-,N/A,,Scattered Clouds,0,2013-08-10 04:53:00
1:53 AM,75.0,73.9,96,30.06,6.0,SW,3.5,-,N/A,,Clear,220,2013-08-10 05:53:00
2:53 AM,75.9,73.9,94,30.05,10.0,SW,4.6,-,N/A,,Clear,230,2013-08-10 06:53:00
3:53 AM,75.0,73.9,96,30.05,10.0,SSW,4.6,-,N/A,,Partly Cloudy,210,2013-08-10 07:53:00
4:53 AM,75.0,73.9,96,30.06,6.0,Calm,Calm,-,N/A,,Clear,0,2013-08-10 08:53:00
5:01 AM,75.2,73.4,94,30.09,5.0,SSE,3.5,-,N/A,,Scattered Clouds,160,2013-08-10 09:01:00
5:31 AM,73.4,73.4,100,30.09,2.5,Calm,Calm,-,N/A,,Partly Cloudy,0,2013-08-10 09:31:00
5:38 AM,73.4,73.4,100,30.09,5.0,Calm,Calm,-,N/A,,Partly Cloudy,0,2013-08-10 09:38:00
5:43 AM,73.4,73.4,100,30.09,1.8,Calm,Calm,-,N/A,,Partly Cloudy,0,2013-08-10 09:43:00
5:53 AM,73.9,73.0,97,30.06,3.0,Calm,Calm,-,N/A,,Partly Cloudy,0,2013-08-10 09:53:00
6:01 AM,73.4,73.4,100,30.09,1.8,Calm,Calm,-,N/A,,Partly Cloudy,0,2013-08-10 10:01:00
6:07 AM,73.4,73.4,100,30.09,3.0,Calm,Calm,-,N/A,,Scattered Clouds,0,2013-08-10 10:07:00
6:20 AM,73.4,73.4,100,30.10,4.0,SSW,4.6,-,N/A,,Scattered Clouds,200,2013-08-10 10:20:00
6:27 AM,73.4,73.4,100,30.10,4.0,South,3.5,-,N/A,,Mostly Cloudy,190,2013-08-10 10:27:00
6:53 AM,73.9,73.0,97,30.07,3.0,SW,3.5,-,N/A,,Overcast,230,2013-08-10 10:53:00
7:01 AM,73.4,73.4,100,30.11,2.5,WSW,4.6,-,N/A,,Overcast,250,2013-08-10 11:01:00
7:53 AM,75.0,73.9,96,30.08,2.5,SSW,6.9,-,N/A,,Overcast,210,2013-08-10 11:53:00
8:12 AM,75.2,73.4,94,30.12,3.0,SW,4.6,-,N/A,,Overcast,230,2013-08-10 12:12:00
8:48 AM,78.8,75.2,89,30.12,7.0,SW,4.6,-,N/A,,Partly Cloudy,230,2013-08-10 12:48:00
8:53 AM,78.1,73.9,87,30.09,8.0,WSW,6.9,-,N/A,,Partly Cloudy,240,2013-08-10 12:53:00
9:53 AM,82.0,75.0,79,30.09,10.0,SW,8.1,-,N/A,,Clear,230,2013-08-10 13:53:00
10:53 AM,84.0,75.0,74,30.10,10.0,SW,9.2,-,N/A,,Partly Cloudy,220,2013-08-10 14:53:00
11:53 AM,86.0,73.9,67,30.10,10.0,West,9.2,-,N/A,,Partly Cloudy,260,2013-08-10 15:53:00
12:53 PM,87.1,73.9,65,30.07,10.0,SW,9.2,-,N/A,,Clear,220,2013-08-10 16:53:00
1:53 PM,89.1,73.9,61,30.06,10.0,SW,11.5,-,N/A,,Partly Cloudy,220,2013-08-10 17:53:00
2:53 PM,81.0,69.1,67,30.09,10.0,WNW,10.4,18.4,N/A,Thunderstorm,Scattered Clouds,300,2013-08-10 18:53:00
3:13 PM,75.2,71.6,89,30.12,4.0,NW,8.1,24.2,0.01,Rain,Light Rain,320,2013-08-10 19:13:00
3:32 PM,78.8,73.4,83,30.11,10.0,WNW,5.8,-,0.01,,Mostly Cloudy,290,2013-08-10 19:32:00
3:53 PM,80.1,73.0,79,30.06,10.0,West,4.6,-,0.01,,Partly Cloudy,270,2013-08-10 19:53:00
4:53 PM,84.0,72.0,67,30.04,10.0,Calm,Calm,-,N/A,,Clear,0,2013-08-10 20:53:00
5:53 PM,86.0,71.1,61,30.06,10.0,Calm,Calm,-,N/A,,Clear,0,2013-08-10 21:53:00
6:53 PM,84.0,73.0,69,30.06,10.0,Calm,Calm,-,N/A,,Clear,0,2013-08-10 22:53:00
7:53 PM,81.0,73.9,79,30.08,10.0,West,4.6,-,N/A,Thunderstorm,Mostly Cloudy,260,2013-08-10 23:53:00
8:18 PM,78.8,71.6,78,30.12,10.0,WNW,6.9,-,N/A,,Scattered Clouds,300,2013-08-11 00:18:00
8:29 PM,78.8,69.8,74,30.12,10.0,NNW,3.5,-,N/A,Thunderstorm,Partly Cloudy,340,2013-08-11 00:29:00
8:44 PM,78.8,71.6,78,30.13,10.0,NNW,4.6,-,N/A,,Clear,340,2013-08-11 00:44:00
8:53 PM,77.0,71.1,82,30.10,10.0,North,5.8,-,N/A,,Clear,350,2013-08-11 00:53:00
9:53 PM,75.0,70.0,84,30.10,10.0,East,4.6,-,N/A,,Partly Cloudy,100,2013-08-11 01:53:00
10:53 PM,73.0,70.0,90,30.09,10.0,Calm,Calm,-,N/A,,Clear,0,2013-08-11 02:53:00
11:53 PM,72.0,70.0,93,30.09,10.0,Calm,Calm,-,N/A,,Clear,0,2013-08-11 03:53:00